TimeEDT,TemperatureF,Dew PointF,Humidity,Sea Level PressureIn,VisibilityMPH,Wind Direction,Wind SpeedMPH,Gust SpeedMPH,PrecipitationIn,Events,Conditions,WindDirDegrees,DateUTC
12:53 AM,63.0,62.1,97,30.14,-9999.0,Calm,Calm,-,N/A,,Unknown,0,2012-10-11 04:53:00
1:53 AM,62.1,61.0,96,30.13,-9999.0,Calm,Calm,-,N/A,,Unknown,0,2012-10-11 05:53:00
2:53 AM,61.0,59.0,93,30.13,-9999.0,Calm,Calm,-,N/A,,Unknown,0,2012-10-11 06:53:00
3:53 AM,59.0,57.9,96,30.13,-9999.0,Calm,Calm,-,N/A,,Unknown,0,2012-10-11 07:53:00
4:53 AM,60.1,59.0,96,30.13,-9999.0,Calm,Calm,-,N/A,,Unknown,0,2012-10-11 08:53:00
5:53 AM,61.0,57.9,90,30.14,-9999.0,NE,3.5,-,N/A,,Unknown,40,2012-10-11 09:53:00
6:53 AM,61.0,57.9,90,30.16,-9999.0,Calm,Calm,-,N/A,,Unknown,0,2012-10-11 10:53:00
7:53 AM,57.9,55.9,93,30.17,-9999.0,Calm,Calm,-,N/A,,Unknown,0,2012-10-11 11:53:00
8:53 AM,64.9,60.1,84,30.19,-9999.0,Variable,3.5,-,N/A,,Unknown,0,2012-10-11 12:53:00
9:53 AM,70.0,60.1,71,30.21,-9999.0,NE,4.6,-,N/A,,Unknown,50,2012-10-11 13:53:00
10:53 AM,73.9,59.0,59,30.22,-9999.0,Variable,6.9,-,N/A,,Unknown,0,2012-10-11 14:53:00
11:53 AM,75.9,57.9,54,30.22,-9999.0,ENE,5.8,-,N/A,,Unknown,60,2012-10-11 15:53:00
12:53 PM,79.0,59.0,50,30.20,-9999.0,NE,6.9,-,N/A,,Unknown,40,2012-10-11 16:53:00
1:53 PM,80.1,59.0,48,30.18,-9999.0,North,6.9,-,N/A,,Unknown,360,2012-10-11 17:53:00
2:53 PM,82.0,57.9,44,30.17,-9999.0,Variable,5.8,-,N/A,,Unknown,0,2012-10-11 18:53:00
4:53 PM,81.0,59.0,47,30.17,-9999.0,NE,8.1,-,N/A,,Unknown,40,2012-10-11 20:53:00
5:53 PM,80.1,59.0,48,30.17,-9999.0,NNE,5.8,-,N/A,,Unknown,30,2012-10-11 21:53:00
6:53 PM,75.9,59.0,56,30.17,-9999.0,Calm,Calm,-,N/A,,Unknown,0,2012-10-11 22:53:00
7:53 PM,66.0,61.0,84,30.17,-9999.0,Calm,Calm,-,N/A,,Unknown,0,2012-10-11 23:53:00
8:53 PM,64.0,60.1,87,30.19,-9999.0,Calm,Calm,-,N/A,,Unknown,0,2012-10-12 00:53:00
9:53 PM,62.1,59.0,90,30.21,-9999.0,Calm,Calm,-,N/A,,Unknown,0,2012-10-12 01:53:00
10:53 PM,61.0,59.0,93,30.21,-9999.0,Calm,Calm,-,N/A,,Unknown,0,2012-10-12 02:53:00
11:53 PM,60.1,57.9,93,30.21,-9999.0,Calm,Calm,-,N/A,,Unknown,0,2012-10-12 03:53:00